GW5292 Weather Reports


time (UTC)temp
C
wind
direction
speed
KPH
gust
KPH
rain 1hr
cm
rain 24hr
cm
rain mn
cm
humidity
%
barometer
mb
20260502234511 11 271 0.0 3.2 0.00 0.13 0.13 46 1011.7
20260502233014 11 286 0.0 3.2 0.00 0.13 0.13 44 1011.5
20260502231503 12 202 0.0 3.2 0.00 0.13 0.13 45 1011.6
20260502230004 12 336 1.6 3.2 0.00 0.13 0.13 46 1011.6
20260502224509 12 49 0.0 3.2 0.00 0.13 0.13 44 1011.7
20260502223017 12 200 0.0 3.2 0.00 0.13 0.13 44 1011.7
20260502221519 12 208 1.6 4.8 0.00 0.13 0.13 45 1011.6
20260502220005 12 146 0.0 3.2 0.00 0.13 0.13 42 1011.4
20260502214504 13 218 0.0 3.2 0.00 0.13 0.13 41 1011.3
20260502213009 13 63 1.6 4.8 0.00 0.13 0.13 40 1011.3
20260502211521 14 82 1.6 8.0 0.00 0.13 0.13 38 1011.1
20260502210021 13 352 1.6 6.4 0.00 0.13 0.13 37 1011.0
20260502204504 14 197 1.6 4.8 0.00 0.13 0.13 38 1010.9
20260502203010 14 181 1.6 8.0 0.00 0.13 0.13 38 1011.0
20260502201513 14 181 4.8 9.7 0.00 0.13 0.13 39 1011.0
20260502200024 14 71 1.6 4.8 0.00 0.13 0.13 39 1011.3
20260502194523 13 98 1.6 3.2 0.00 0.13 0.13 41 1011.5
20260502193011 13 196 0.0 6.4 0.00 0.13 0.13 44 1011.7
20260502191513 14 49 3.2 6.4 0.00 0.13 0.13 42 1012.1
20260502190018 13 30 3.2 4.8 0.00 0.13 0.13 47 1012.2
20260502184522 13 352 1.6 4.8 0.00 0.13 0.13 45 1012.4
20260502183023 13 174 0.0 4.8 0.00 0.13 0.13 45 1012.5
20260502181507 13 213 1.6 3.2 0.00 0.13 0.13 41 1012.6
20260502163023 13 24 1.6 6.4 0.00 0.13 0.13 51 1013.3
20260502161527 13 214 3.2 6.4 0.00 0.13 0.13 48 1013.3
20260502151525 12 30 1.6 9.7 0.00 0.13 0.13 54 1013.5
20260502123018 8 17 3.2 4.8 0.00 0.13 0.13 74 1013.8
20260502121503 7 11 1.6 4.8 0.00 0.13 0.13 76 1013.6
20260502114503 7 14 4.8 8.0 0.00 0.13 0.13 79 1013.6
20260502113013 7 19 1.6 8.0 0.00 0.13 0.13 83 1013.5
20260502111513 7 24 0.0 3.2 0.00 0.13 0.13 90 1013.2
20260502110003 7 218 0.0 1.6 0.00 0.13 0.13 90 1013.2
20260502104518 7 221 0.0 3.2 0.00 0.13 0.13 90 1013.0
20260502103010 7 180 0.0 3.2 0.00 0.13 0.13 90 1012.7
20260502101514 7 182 0.0 3.2 0.00 0.13 0.13 91 1012.6
20260502091515 7 190 0.0 0.0 0.00 0.13 0.13 94 1011.7
20260502071505 8 190 0.0 0.0 0.08 0.13 0.13 92 1011.6
20260502070013 8 190 0.0 0.0 0.10 0.13 0.13 92 1011.6
20260502064507 8 190 0.0 0.0 0.08 0.10 0.10 91 1011.8
20260502063002 8 190 0.0 0.0 0.10 0.10 0.10 89 1012.0
20260502061501 9 190 0.0 0.0 0.05 0.05 0.05 88 1012.2
20260502060006 9 190 0.0 0.0 0.03 0.03 0.03 88 1012.5
20260502054518 10 190 0.0 1.6 0.03 0.03 0.03 85 1012.5
20260502053003 10 190 0.0 0.0 0.00 0.00 0.00 83 1012.5
20260502051503 10 190 0.0 0.0 0.00 0.00 0.00 83 1012.5
20260502050006 10 244 0.0 3.2 0.00 0.00 0.00 84 1012.5
20260502044510 10 244 0.0 3.2 0.00 0.00 0.00 84 1012.6
20260502043016 10 248 0.0 3.2 0.00 0.00 0.00 86 1012.7
20260502041503 9 12 0.0 0.0 0.00 0.00 0.00 88 1012.2
20260502040003 9 12 0.0 0.0 0.00 0.00 0.00 89 1012.3
20260502034508 9 12 0.0 3.2 0.00 0.00 0.00 89 1012.1
20260502033014 9 12 0.0 0.0 0.00 0.00 0.00 88 1011.8
20260502031517 9 12 0.0 0.0 0.00 0.00 0.00 87 1011.6
20260502030003 9 12 0.0 0.0 0.00 0.00 0.00 85 1011.6
20260502024505 9 12 0.0 0.0 0.00 0.00 0.00 84 1011.6
20260502023010 10 12 0.0 3.2 0.00 0.00 0.00 82 1011.7
20260502021514 10 12 0.0 0.0 0.00 0.00 0.00 82 1011.6
20260502020018 10 12 0.0 0.0 0.00 0.00 0.00 82 1012.0
20260502014507 10 12 0.0 0.0 0.00 0.00 0.00 81 1011.8
20260502013008 10 12 0.0 0.0 0.00 0.00 0.00 80 1011.6
20260502011511 10 12 0.0 0.0 0.00 0.00 0.00 79 1011.7
20260502010018 11 12 0.0 0.0 0.00 0.00 0.00 75 1011.6
20260502004522 11 12 0.0 0.0 0.00 0.00 0.00 73 1011.7
20260502003016 12 12 0.0 3.2 0.00 0.00 0.00 70 1011.5
20260502001508 12 9 3.2 6.4 0.00 0.00 0.00 67 1011.6
20260502000015 14 50 0.0 9.7 0.00 0.00 0.00 60 1011.3